Regional Weather Roundup
Issued by NWS

Home | Current Version | Previous Version | Graphics & Text | Print | Product List | Glossary On
Versions: 1 2 3 4 5 6 7 8 9 10 11 12 13 14 15 16 17 18 19 20 21 22 23 24 25 26 27 28 29 30 31 32 33 34 35 36 37 38 39 40 41 42 43 44 45 46 47 48 49 50
000
ASUS43 KFSD 261310
RWRSD

WEATHER ROUNDUP FOR SOUTH DAKOTA
NATIONAL WEATHER SERVICE SIOUX FALLS SD
800 AM CDT MON JUN 26 2017

NOTE: "FAIR" INDICATES FEW OR NO CLOUDS BELOW 12,000 FEET WITH NO
SIGNIFICANT WEATHER AND/OR OBSTRUCTIONS TO VISIBILITY.


SDZ001>005-009-010-012>017-261400-
NORTHWEST AND NORTH CENTRAL SOUTH DAKOTA

CITY           SKY/WX    TMP DP  RH WIND       PRES   REMARKS
BUFFALO          N/A     55  41  59 E8        30.18S
FAITH            N/A     54  45  71 SE8       30.26R
MOBRIDGE       SUNNY     56  47  71 N5        30.26R
$$

SDZ012>016-024>037-041>051-057-063-072>074-261400-
SOUTHWEST AND SOUTH CENTRAL SOUTH DAKOTA

CITY           SKY/WX    TMP DP  RH WIND       PRES   REMARKS
RAPID CTY ARPT SUNNY     56  39  53 SW6       30.26S
PIERRE         SUNNY     52  46  80 SE5       30.25R
CUSTER         SUNNY     50  35  56 N3        30.32S
ELLSWORTH AFB  SUNNY     56  39  52 SW5       30.25S
PHILIP         SUNNY     49  44  83 CALM      30.26R
PINE RIDGE     SUNNY     51  42  71 CALM      30.26R
SPEARFISH      FAIR      55  41  58 CALM      30.25S
WINNER         FAIR      56  47  71 N3        30.25S
$$

SDZ004>011-016>023-039-040-261400-
NORTHEAST SOUTH DAKOTA

CITY           SKY/WX    TMP DP  RH WIND       PRES   REMARKS
ABERDEEN       SUNNY     52  46  80 N5        30.27R
WATERTOWN      SUNNY     51  46  83 N3        30.24R
BROOKINGS      SUNNY     51  47  86 VRB3      30.25R
SISSETON         N/A     56  44  64 NW7       30.25R
$$

SDZ017-020-022-023-036>040-048>070-261400-
SOUTHEAST SOUTH DAKOTA

CITY           SKY/WX    TMP DP  RH WIND       PRES   REMARKS
SIOUX FALLS    SUNNY     56  52  86 NE5       30.23R
HURON          SUNNY     52  49  89 N3        30.26R
CHAMBERLAIN    SUNNY     58  49  73 N3        30.25R
MITCHELL       SUNNY     56  52  86 N7        30.24S
YANKTON        SUNNY     57  52  83 NE5       30.22S
$$

ABBREVIATIONS USED IN REMARKS
   TC - TEMPERATURE IN CELSIUS
  WCI - WIND CHILL INDEX
   HX - HEAT INDEX
  VSB - VISIBILITY




USA.gov is the U.S. government's official web portal to all federal, state and local government web resources and services.